TGW657 VTSP-WSSS

Flight info

Callsign TGW657
Flight time 1h 30m
Altitude 37000
Route REBED1A REBED B579 VPL Y503 RINBA Y507 MAKNA Y511 TOPOR A464 ARAMA DCT TEBUN TEBUN1A
Aircraft A20N/M-SDE2E3FGHIRWXY/LB1

Departure

Time 2026-05-05 03:33
Airport Phuket International Airport (VTSP)

Arrival

Time 2026-05-05 05:03
Airport Singapore Changi Airport (WSSS)
Time Latitude Longitude Altitude Speed Heading
2026-05-05 03:01 8.10547 98.30465 31 ft 0 kts 105°
2026-05-05 03:26 8.10551 98.30449 30 ft 2 kts 104°
2026-05-05 03:26 8.10555 98.30433 30 ft 2 kts 104°
2026-05-05 03:26 8.10559 98.30417 29 ft 2 kts 105°
2026-05-05 03:26 8.10563 98.30401 29 ft 2 kts 105°
2026-05-05 03:27 8.10568 98.30385 29 ft 2 kts 96°
2026-05-05 03:27 8.10564 98.30369 28 ft 2 kts 32°
2026-05-05 03:27 8.10555 98.30365 28 ft 1 kts 17°
2026-05-05 03:29 8.10560 98.30366 28 ft 4 kts 17°
2026-05-05 03:29 8.10617 98.30382 29 ft 11 kts 14°
2026-05-05 03:30 8.10698 98.30403 29 ft 13 kts 14°
2026-05-05 03:30 8.10792 98.30425 30 ft 15 kts 12°
2026-05-05 03:30 8.10894 98.30451 31 ft 16 kts 14°
2026-05-05 03:30 8.10999 98.30476 31 ft 14 kts 360°
2026-05-05 03:31 8.11036 98.30401 30 ft 15 kts 272°
2026-05-05 03:31 8.11085 98.30349 29 ft 0 kts 354°
2026-05-05 03:31 8.11101 98.30347 29 ft 8 kts 354°
2026-05-05 03:32 8.11182 98.30341 29 ft 10 kts
2026-05-05 03:32 8.11194 98.30359 29 ft 2 kts 84°
2026-05-05 03:32 8.11210 98.30503 31 ft 43 kts 84°
2026-05-05 03:32 8.11260 98.31040 43 ft 107 kts 84°
2026-05-05 03:33 8.11348 98.31963 99 ft 152 kts 85°
2026-05-05 03:33 8.11436 98.33026 693 ft 155 kts 86°
2026-05-05 03:33 8.11521 98.34140 1306 ft 162 kts 85°
2026-05-05 03:33 8.11612 98.35286 1943 ft 166 kts 85°
2026-05-05 03:34 8.11732 98.36485 2447 ft 177 kts 83°
2026-05-05 03:34 8.11887 98.37771 2919 ft 194 kts 84°
2026-05-05 03:34 8.12037 98.39198 3324 ft 215 kts 85°
2026-05-05 03:34 8.12185 98.40788 3695 ft 239 kts 85°
2026-05-05 03:35 8.12323 98.42532 4215 ft 257 kts 92°
2026-05-05 03:35 8.11870 98.44247 4984 ft 261 kts 120°
2026-05-05 03:35 8.10627 98.45584 5826 ft 267 kts 146°
2026-05-05 03:35 8.08956 98.46440 6633 ft 272 kts 155°
2026-05-05 03:36 8.07177 98.47148 7387 ft 277 kts 156°
2026-05-05 03:36 8.05368 98.47857 8146 ft 281 kts 156°
2026-05-05 03:36 8.03546 98.48612 8894 ft 285 kts 154°
2026-05-05 03:36 8.01713 98.49411 9671 ft 289 kts 154°
2026-05-05 03:37 7.99859 98.50243 10279 ft 298 kts 153°
2026-05-05 03:37 7.97896 98.51137 10484 ft 321 kts 153°
2026-05-05 03:37 7.95792 98.52098 10725 ft 340 kts 153°
2026-05-05 03:37 7.93616 98.53089 11315 ft 345 kts 154°
2026-05-05 03:38 7.91414 98.54088 12004 ft 348 kts 154°
2026-05-05 03:38 7.89945 98.54755 12445 ft 351 kts 154°
2026-05-05 03:38 7.86948 98.56117 13328 ft 356 kts 154°
2026-05-05 03:38 7.84683 98.57147 13947 ft 359 kts 154°
2026-05-05 03:39 7.83169 98.57835 14297 ft 361 kts 154°
2026-05-05 03:39 7.80864 98.58883 14840 ft 365 kts 154°
2026-05-05 03:39 7.78542 98.59939 15383 ft 367 kts 154°
2026-05-05 03:39 7.76197 98.61005 15913 ft 371 kts 154°
2026-05-05 03:40 7.73849 98.62103 16425 ft 373 kts 150°
2026-05-05 03:41 7.71903 98.63269 16868 ft 375 kts 144°
2026-05-05 03:41 7.69833 98.64880 17364 ft 377 kts 139°
2026-05-05 03:41 7.67804 98.66568 17852 ft 380 kts 139°
2026-05-05 03:41 7.65746 98.68267 18310 ft 383 kts 139°
2026-05-05 03:42 7.63672 98.69973 18740 ft 386 kts 139°
2026-05-05 03:42 7.61584 98.71689 19154 ft 389 kts 139°
2026-05-05 03:42 7.59504 98.73397 19563 ft 392 kts 139°
2026-05-05 03:42 7.57385 98.75138 19978 ft 394 kts 139°
2026-05-05 03:43 7.55249 98.76893 20381 ft 397 kts 140°
2026-05-05 03:43 7.53102 98.78657 20793 ft 400 kts 140°
2026-05-05 03:43 7.50937 98.80435 21195 ft 402 kts 140°
2026-05-05 03:43 7.48759 98.82224 21595 ft 405 kts 140°
2026-05-05 03:44 7.46571 98.84022 21983 ft 408 kts 140°
2026-05-05 03:44 7.44363 98.85834 22377 ft 410 kts 140°
2026-05-05 03:44 7.42138 98.87658 22751 ft 413 kts 140°
2026-05-05 03:44 7.39899 98.89494 23121 ft 416 kts 140°
2026-05-05 03:45 7.37651 98.91337 23490 ft 418 kts 140°
2026-05-05 03:45 7.35386 98.93194 23802 ft 421 kts 140°
2026-05-05 03:45 7.33101 98.95066 24114 ft 423 kts 140°
2026-05-05 03:45 7.30812 98.96942 24423 ft 425 kts 140°
2026-05-05 03:46 7.28544 98.98801 24718 ft 427 kts 140°
2026-05-05 03:46 7.26231 99.00696 25021 ft 429 kts 140°
2026-05-05 03:46 7.23907 99.02600 25318 ft 432 kts 140°
2026-05-05 03:46 7.21567 99.04517 25594 ft 434 kts 140°
2026-05-05 03:47 7.19217 99.06441 25871 ft 436 kts 140°
2026-05-05 03:47 7.16860 99.08370 26153 ft 438 kts 140°
2026-05-05 03:47 7.14485 99.10314 26419 ft 440 kts 140°
2026-05-05 03:47 7.12105 99.12263 26681 ft 442 kts 140°
2026-05-05 03:48 7.09714 99.14220 26937 ft 444 kts 140°
2026-05-05 03:48 7.07311 99.16187 27193 ft 446 kts 140°
2026-05-05 03:48 7.04897 99.18162 27445 ft 448 kts 140°
2026-05-05 03:48 7.02503 99.20121 27676 ft 450 kts 140°
2026-05-05 03:49 7.00066 99.22115 27927 ft 452 kts 140°
2026-05-05 03:49 6.97624 99.24112 28154 ft 454 kts 140°
2026-05-05 03:49 6.95169 99.26120 28381 ft 456 kts 140°
2026-05-05 03:49 6.92701 99.28139 28613 ft 457 kts 140°
2026-05-05 03:50 6.90227 99.30161 28826 ft 459 kts 140°
2026-05-05 03:50 6.87738 99.32197 29046 ft 461 kts 140°
2026-05-05 03:50 6.85246 99.34233 29244 ft 463 kts 140°
2026-05-05 03:50 6.82769 99.36258 29448 ft 464 kts 140°
2026-05-05 03:51 6.80255 99.38312 29654 ft 466 kts 140°
2026-05-05 03:51 6.77735 99.40371 29855 ft 468 kts 140°
2026-05-05 03:51 6.75203 99.42439 30054 ft 469 kts 140°
2026-05-05 03:51 6.72666 99.44512 30219 ft 471 kts 140°
2026-05-05 03:52 6.70113 99.46597 30403 ft 473 kts 140°
2026-05-05 03:52 6.67553 99.48687 30583 ft 474 kts 140°
2026-05-05 03:52 6.64984 99.50785 30761 ft 476 kts 140°
2026-05-05 03:52 6.62413 99.52885 30962 ft 477 kts 140°
2026-05-05 03:53 6.59838 99.54986 31202 ft 477 kts 140°
2026-05-05 03:53 6.57262 99.57089 31446 ft 477 kts 140°
2026-05-05 03:53 6.54685 99.59192 31688 ft 476 kts 140°
2026-05-05 03:53 6.52108 99.61295 31931 ft 476 kts 140°
2026-05-05 03:54 6.49538 99.63392 32172 ft 476 kts 140°
2026-05-05 03:54 6.46968 99.65489 32403 ft 476 kts 140°
2026-05-05 03:54 6.44385 99.67563 32625 ft 476 kts 141°
2026-05-05 03:54 6.41807 99.69581 32855 ft 475 kts 141°
2026-05-05 03:55 6.39189 99.71618 33080 ft 475 kts 141°
2026-05-05 03:55 6.36579 99.73655 33307 ft 475 kts 140°
2026-05-05 03:55 6.34123 99.75862 33507 ft 474 kts 134°
2026-05-05 03:55 6.31842 99.78210 33716 ft 474 kts 133°
2026-05-05 03:56 6.29533 99.80579 33914 ft 474 kts 134°
2026-05-05 03:56 6.27228 99.82939 34078 ft 474 kts 134°
2026-05-05 03:56 6.24917 99.85304 34269 ft 473 kts 134°
2026-05-05 03:56 6.22611 99.87662 34453 ft 472 kts 134°
2026-05-05 03:57 6.20306 99.90020 34634 ft 472 kts 134°
2026-05-05 03:57 6.18006 99.92372 34818 ft 471 kts 134°
2026-05-05 03:57 6.15713 99.94716 35000 ft 470 kts 134°
2026-05-05 03:57 6.13420 99.97061 35172 ft 469 kts 134°
2026-05-05 03:58 6.11134 99.99399 35342 ft 469 kts 134°
2026-05-05 03:58 6.08848 100.01736 35514 ft 469 kts 134°
2026-05-05 03:58 6.06565 100.04069 35691 ft 468 kts 134°
2026-05-05 03:58 6.04286 100.06399 35853 ft 468 kts 134°
2026-05-05 03:59 6.02004 100.08731 36038 ft 467 kts 134°
2026-05-05 03:59 5.99724 100.11060 36217 ft 466 kts 134°
2026-05-05 03:59 5.97451 100.13383 36412 ft 466 kts 134°
2026-05-05 03:59 5.95210 100.15672 36613 ft 465 kts 134°
2026-05-05 04:00 5.92941 100.17989 36818 ft 464 kts 134°
2026-05-05 04:00 5.90676 100.20302 36900 ft 464 kts 134°
2026-05-05 04:00 5.86157 100.24917 36894 ft 463 kts 133°
2026-05-05 04:01 5.81638 100.29530 36900 ft 463 kts 133°
2026-05-05 04:01 5.77120 100.34142 36904 ft 463 kts 133°
2026-05-05 04:02 5.72600 100.38753 36909 ft 463 kts 133°
2026-05-05 04:02 5.68111 100.43332 36905 ft 463 kts 133°
2026-05-05 04:03 5.63592 100.47941 36906 ft 463 kts 133°
2026-05-05 04:03 5.59075 100.52548 36905 ft 463 kts 133°
2026-05-05 04:04 5.54552 100.57158 36906 ft 463 kts 133°
2026-05-05 04:04 5.50036 100.61761 36901 ft 462 kts 133°
2026-05-05 04:05 5.45530 100.66352 36904 ft 461 kts 133°
2026-05-05 04:05 5.41021 100.70926 36921 ft 461 kts 136°
2026-05-05 04:06 5.35709 100.74496 36917 ft 461 kts 156°
2026-05-05 04:06 5.29534 100.76186 36913 ft 461 kts 171°
2026-05-05 04:07 5.23241 100.77168 36908 ft 461 kts 171°
2026-05-05 04:07 5.16858 100.78180 36929 ft 466 kts 171°
2026-05-05 04:08 5.10459 100.79194 36927 ft 465 kts 171°
2026-05-05 04:08 5.04058 100.80206 36924 ft 466 kts 171°
2026-05-05 04:09 4.97653 100.81218 36929 ft 466 kts 171°
2026-05-05 04:09 4.92320 100.82061 36926 ft 467 kts 171°
2026-05-05 04:10 4.85814 100.83089 36926 ft 467 kts 171°
2026-05-05 04:11 4.79433 100.84096 36933 ft 467 kts 171°
2026-05-05 04:11 4.72999 100.85112 36931 ft 468 kts 171°
2026-05-05 04:12 4.66564 100.86129 36929 ft 468 kts 171°
2026-05-05 04:12 4.60128 100.87144 36927 ft 468 kts 171°
2026-05-05 04:13 4.53696 100.88160 36928 ft 467 kts 171°
2026-05-05 04:13 4.47316 100.89384 36928 ft 467 kts 164°
2026-05-05 04:14 4.41288 100.91628 36926 ft 465 kts 154°
2026-05-05 04:14 4.35460 100.94486 36924 ft 465 kts 153°
2026-05-05 04:15 4.29643 100.97315 36914 ft 465 kts 153°
2026-05-05 04:15 4.23826 101.00146 36917 ft 464 kts 153°
2026-05-05 04:16 4.18016 101.02974 36912 ft 464 kts 153°
2026-05-05 04:16 4.12209 101.05802 36909 ft 464 kts 153°
2026-05-05 04:17 4.06406 101.08626 36910 ft 463 kts 153°
2026-05-05 04:17 4.00647 101.11429 36919 ft 463 kts 153°
2026-05-05 04:18 3.94850 101.14250 36905 ft 463 kts 153°
2026-05-05 04:18 3.89058 101.17068 36911 ft 463 kts 153°
2026-05-05 04:19 3.83262 101.19888 36905 ft 463 kts 153°
2026-05-05 04:19 3.77461 101.22709 36903 ft 463 kts 153°
2026-05-05 04:20 3.71713 101.25629 36909 ft 463 kts 152°
2026-05-05 04:20 3.66044 101.28619 36913 ft 463 kts 152°
2026-05-05 04:21 3.60334 101.31606 36904 ft 463 kts 152°
2026-05-05 04:21 3.54621 101.34580 36914 ft 463 kts 152°
2026-05-05 04:22 3.48916 101.37548 36911 ft 462 kts 152°
2026-05-05 04:22 3.43199 101.40523 36902 ft 463 kts 152°
2026-05-05 04:23 3.37485 101.43495 36901 ft 462 kts 152°
2026-05-05 04:23 3.31856 101.46422 36898 ft 461 kts 152°
2026-05-05 04:24 3.27037 101.48700 36888 ft 461 kts 155°
2026-05-05 04:25 3.18276 101.52662 36888 ft 460 kts 154°
2026-05-05 04:25 3.12455 101.55339 36880 ft 460 kts 154°
2026-05-05 04:26 3.05697 101.58460 36895 ft 460 kts 154°
2026-05-05 04:26 2.99874 101.61148 36888 ft 460 kts 154°
2026-05-05 04:27 2.95041 101.63378 36891 ft 460 kts 154°
2026-05-05 04:27 2.89225 101.66061 36890 ft 460 kts 154°
2026-05-05 04:28 2.83417 101.68740 36887 ft 460 kts 154°
2026-05-05 04:28 2.81481 101.69633 36895 ft 459 kts 154°
2026-05-05 04:29 2.77575 101.71435 36884 ft 459 kts 154°
2026-05-05 04:29 2.71775 101.74110 36892 ft 459 kts 154°
2026-05-05 04:30 2.66060 101.76874 36885 ft 458 kts 153°
2026-05-05 04:30 2.60330 101.79689 36884 ft 458 kts 153°
2026-05-05 04:31 2.54884 101.82949 36882 ft 456 kts 141°
2026-05-05 04:31 2.50365 101.87374 36867 ft 454 kts 127°
2026-05-05 04:32 2.46596 101.92386 36871 ft 454 kts 126°
2026-05-05 04:32 2.42789 101.97434 36874 ft 454 kts 126°
2026-05-05 04:33 2.38989 102.02475 36880 ft 454 kts 126°
2026-05-05 04:33 2.35188 102.07520 36886 ft 454 kts 126°
2026-05-05 04:34 2.31390 102.12562 36891 ft 454 kts 126°
2026-05-05 04:34 2.27585 102.17612 36805 ft 455 kts 126°
2026-05-05 04:34 2.25684 102.20135 36451 ft 455 kts 126°
2026-05-05 04:35 2.23775 102.22668 35927 ft 455 kts 126°
2026-05-05 04:35 2.21874 102.25190 35451 ft 454 kts 126°
2026-05-05 04:35 2.20000 102.27677 35038 ft 453 kts 126°
2026-05-05 04:35 2.18100 102.30197 34625 ft 455 kts 126°
2026-05-05 04:36 2.16193 102.32728 34220 ft 457 kts 126°
2026-05-05 04:36 2.14280 102.35266 33810 ft 458 kts 126°
2026-05-05 04:36 2.12363 102.37810 33357 ft 457 kts 126°
2026-05-05 04:36 2.10455 102.40341 32898 ft 458 kts 126°
2026-05-05 04:37 2.08550 102.42868 32469 ft 459 kts 126°
2026-05-05 04:37 2.06628 102.45418 32035 ft 459 kts 126°
2026-05-05 04:37 2.04704 102.47970 31604 ft 460 kts 126°
2026-05-05 04:37 2.02773 102.50530 31181 ft 461 kts 126°
2026-05-05 04:38 2.00842 102.53093 30766 ft 462 kts 126°
2026-05-05 04:38 1.98912 102.55655 30356 ft 462 kts 126°
2026-05-05 04:38 1.96984 102.58216 29949 ft 459 kts 126°
2026-05-05 04:38 1.95074 102.60752 29470 ft 455 kts 126°
2026-05-05 04:39 1.93177 102.63270 29007 ft 451 kts 126°
2026-05-05 04:39 1.91297 102.65765 28542 ft 447 kts 126°
2026-05-05 04:39 1.89434 102.68238 28091 ft 444 kts 126°
2026-05-05 04:39 1.87586 102.70692 27646 ft 441 kts 126°
2026-05-05 04:40 1.85747 102.73133 27204 ft 438 kts 126°
2026-05-05 04:40 1.83922 102.75555 26776 ft 435 kts 126°
2026-05-05 04:40 1.82109 102.77962 26349 ft 432 kts 126°
2026-05-05 04:40 1.80311 102.80348 25971 ft 427 kts 126°
2026-05-05 04:41 1.78531 102.82711 25395 ft 427 kts 126°
2026-05-05 04:41 1.76769 102.85049 24849 ft 424 kts 126°
2026-05-05 04:41 1.74979 102.87424 24289 ft 421 kts 126°
2026-05-05 04:41 1.73351 102.89792 23758 ft 417 kts 120°
2026-05-05 04:42 1.71960 102.92360 23246 ft 412 kts 117°
2026-05-05 04:42 1.70645 102.94845 22749 ft 406 kts 117°
2026-05-05 04:42 1.69324 102.97326 22261 ft 402 kts 117°
2026-05-05 04:42 1.68006 102.99793 21773 ft 402 kts 117°
2026-05-05 04:43 1.66694 103.02251 21282 ft 399 kts 117°
2026-05-05 04:43 1.65394 103.04689 20797 ft 395 kts 117°
2026-05-05 04:43 1.64109 103.07098 20320 ft 391 kts 117°
2026-05-05 04:43 1.62832 103.09494 19829 ft 390 kts 117°
2026-05-05 04:44 1.61557 103.11885 19336 ft 389 kts 117°
2026-05-05 04:44 1.60294 103.14252 18874 ft 384 kts 117°
2026-05-05 04:44 1.59038 103.16605 18423 ft 381 kts 117°
2026-05-05 04:44 1.57795 103.18934 17924 ft 379 kts 117°
2026-05-05 04:45 1.56557 103.21254 17461 ft 376 kts 117°
2026-05-05 04:45 1.55328 103.23555 17006 ft 374 kts 117°
2026-05-05 04:45 1.54124 103.25811 16559 ft 372 kts 117°
2026-05-05 04:45 1.52916 103.28073 16108 ft 370 kts 117°
2026-05-05 04:46 1.51704 103.30344 15762 ft 364 kts 117°
2026-05-05 04:46 1.50536 103.32531 15636 ft 350 kts 117°
2026-05-05 04:46 1.49409 103.34640 15511 ft 337 kts 117°
2026-05-05 04:46 1.48328 103.36665 15387 ft 325 kts 117°
2026-05-05 04:47 1.47271 103.38645 15050 ft 320 kts 117°
2026-05-05 04:47 1.46366 103.40666 14658 ft 319 kts 105°
2026-05-05 04:47 1.46058 103.42846 14257 ft 317 kts 89°
2026-05-05 04:47 1.46301 103.44999 13872 ft 315 kts 82°
2026-05-05 04:48 1.46619 103.47164 13481 ft 314 kts 82°
2026-05-05 04:48 1.46926 103.49315 13062 ft 312 kts 82°
2026-05-05 04:48 1.47228 103.51460 12667 ft 310 kts 82°
2026-05-05 04:48 1.47525 103.53593 12251 ft 309 kts 82°
2026-05-05 04:49 1.47821 103.55710 11846 ft 307 kts 82°
2026-05-05 04:49 1.48117 103.57824 11428 ft 306 kts 82°
2026-05-05 04:49 1.48400 103.59847 11025 ft 305 kts 82°
2026-05-05 04:49 1.48694 103.61942 10620 ft 304 kts 82°
2026-05-05 04:50 1.48988 103.64038 10212 ft 304 kts 82°
2026-05-05 04:50 1.49279 103.66117 9953 ft 297 kts 82°
2026-05-05 04:50 1.49560 103.68122 9850 ft 285 kts 82°
2026-05-05 04:50 1.49829 103.70044 9743 ft 273 kts 82°
2026-05-05 04:51 1.50052 103.71885 9607 ft 263 kts 85°
2026-05-05 04:51 1.50191 103.73692 9255 ft 260 kts 85°
2026-05-05 04:51 1.50331 103.75493 8833 ft 259 kts 85°
2026-05-05 04:51 1.50474 103.77285 8450 ft 257 kts 85°
2026-05-05 04:52 1.50616 103.79064 8061 ft 256 kts 85°
2026-05-05 04:52 1.50756 103.80810 7689 ft 255 kts 85°
2026-05-05 04:52 1.51012 103.82554 7318 ft 253 kts 72°
2026-05-05 04:52 1.51738 103.84139 6942 ft 251 kts 56°
2026-05-05 04:53 1.52700 103.85578 6681 ft 245 kts 56°
2026-05-05 04:53 1.53605 103.86973 6582 ft 233 kts 58°
2026-05-05 04:53 1.54388 103.88344 6486 ft 221 kts 60°
2026-05-05 04:53 1.55112 103.89650 6352 ft 209 kts 60°
2026-05-05 04:54 1.55820 103.90928 5851 ft 212 kts 60°
2026-05-05 04:54 1.56537 103.92219 5435 ft 212 kts 60°
2026-05-05 04:54 1.57254 103.93503 5037 ft 211 kts 60°
2026-05-05 04:54 1.57968 103.94780 4638 ft 210 kts 60°
2026-05-05 04:55 1.58682 103.96049 4225 ft 209 kts 60°
2026-05-05 04:55 1.59393 103.97308 3852 ft 207 kts 60°
2026-05-05 04:55 1.60100 103.98561 3461 ft 206 kts 60°
2026-05-05 04:55 1.60800 103.99798 3202 ft 199 kts 60°
2026-05-05 04:56 1.61387 104.01069 3102 ft 207 kts 79°
2026-05-05 04:56 1.61236 104.02470 3015 ft 205 kts 115°
2026-05-05 04:56 1.60406 104.03624 3004 ft 206 kts 130°
2026-05-05 04:56 1.59497 104.04722 3002 ft 205 kts 130°
2026-05-05 04:57 1.58584 104.05818 3002 ft 205 kts 132°
2026-05-05 04:57 1.58257 104.06143 2997 ft 203 kts 141°
2026-05-05 04:57 1.57465 104.06588 2997 ft 194 kts 163°
2026-05-05 04:58 1.56142 104.06697 3004 ft 193 kts 188°
2026-05-05 04:58 1.54860 104.06375 3000 ft 193 kts 200°
2026-05-05 04:58 1.53624 104.05867 3002 ft 192 kts 206°
2026-05-05 04:58 1.52404 104.05320 2996 ft 192 kts 204°
2026-05-05 04:59 1.51171 104.04788 2821 ft 194 kts 204°
2026-05-05 04:59 1.49947 104.04258 2552 ft 188 kts 204°
2026-05-05 04:59 1.48755 104.03743 2300 ft 182 kts 204°
2026-05-05 04:59 1.47662 104.03271 2065 ft 161 kts 204°
2026-05-05 05:00 1.46687 104.02850 1857 ft 145 kts 204°
2026-05-05 05:00 1.45790 104.02449 1653 ft 141 kts 207°
2026-05-05 05:00 1.44905 104.01995 1454 ft 144 kts 208°
2026-05-05 05:00 1.43998 104.01550 1235 ft 143 kts 201°
2026-05-05 05:01 1.43100 104.01196 1091 ft 139 kts 200°
2026-05-05 05:01 1.42183 104.00851 892 ft 139 kts 201°
2026-05-05 05:01 1.41302 104.00492 726 ft 138 kts 204°
2026-05-05 05:01 1.40433 104.00099 567 ft 137 kts 204°
2026-05-05 05:02 1.39575 103.99732 405 ft 131 kts 202°
2026-05-05 05:02 1.38753 103.99383 247 ft 128 kts 202°
2026-05-05 05:02 1.37928 103.99027 125 ft 129 kts 200°
2026-05-05 05:02 1.37390 103.98800 56 ft 123 kts 201°
2026-05-05 05:03 1.36620 103.98473 30 ft 77 kts 203°
2026-05-05 05:03 1.36265 103.98324 30 ft 48 kts 200°
2026-05-05 05:03 1.35959 103.98292 30 ft 20 kts 153°
2026-05-05 05:03 1.35960 103.98388 30 ft 14 kts 12°
2026-05-05 05:04 1.36003 103.98403 30 ft 8 kts 21°
2026-05-05 05:04 1.36064 103.98428 30 ft 11 kts 23°
2026-05-05 05:04 1.36149 103.98465 30 ft 17 kts 22°
2026-05-05 05:04 1.36279 103.98519 30 ft 22 kts 23°
2026-05-05 05:05 1.36424 103.98581 30 ft 25 kts 23°
2026-05-05 05:05 1.36587 103.98652 30 ft 26 kts 22°
2026-05-05 05:05 1.36762 103.98725 30 ft 28 kts 23°
2026-05-05 05:05 1.36822 103.98841 30 ft 21 kts 113°
2026-05-05 05:06 1.36761 103.98981 30 ft 23 kts 114°
2026-05-05 05:06 1.36708 103.99101 30 ft 15 kts 116°
2026-05-05 05:06 1.36618 103.99126 30 ft 15 kts 175°
2026-05-05 05:06 1.36505 103.99136 30 ft 17 kts 173°
2026-05-05 05:07 1.36384 103.99128 30 ft 19 kts 203°
2026-05-05 05:07 1.36306 103.99102 30 ft 11 kts 173°
2026-05-05 05:07 1.36256 103.99149 22 ft 11 kts 135°
2026-05-05 05:07 1.36235 103.99173 30 ft 1 kts 131°
2026-05-05 05:08 1.36232 103.99175 30 ft 0 kts 133°